Reading, PA

12:36 PM EDT on June 26, 2017 (GMT -0400)
Reading Regional-Spaatz

Weather History for KRDG - January, 2013

Change the Weather History Date:

Friday, January 18, 2013

  Actual Average Record
Temperature  
Mean Temperature 31 °F 29 °F  
Max Temperature 36 °F 37 °F 63 °F (1986)
Min Temperature 25 °F 21 °F -9 °F (1977)
Degree Days  
Heating Degree Days 34 36  
Month to date heating degree days 502 633  
Since 1 July heating degree days 2339 2664  
Cooling Degree Days 0 0  
Month to date cooling degree days 0 0  
Year to date cooling degree days 0 0  
Moisture  
Dew Point 16 °F    
Average Humidity 56    
Maximum Humidity 75    
Minimum Humidity 36    
Precipitation  
Precipitation T in 0.09 in 2.05 in (1978)
Month to date precipitation 1.15 1.91  
Year to date precipitation 1.15 1.91  
Sea Level Pressure  
Sea Level Pressure 30.34 in    
Wind  
Wind Speed 9 mph (WNW)    
Max Wind Speed 13 mph    
Max Gust Speed 16 mph    
Visibility 10 miles    
Events Snow    
T = Trace of Precipitation, MM = Missing Value Source: NWS Daily Summary

Daily Weather History Graph

Daily Weather History Graph

Search for Another Location

Airport or City:

Trip Planner

Search our weather history database for the weather conditions in past years. The results will help you decide how hot, cold, wet, or windy it might be!

Date:

Astronomy

Jan. 18, 2013 Rise Set
Actual Time 7:23 AM EST 5:05 PM EST
Civil Twilight 6:53 AM EST 5:35 PM EST
Nautical Twilight 6:20 AM EST 6:08 PM EST
Astronomical Twilight 5:47 AM EST 6:41 PM EST
Moon 10:59 AM EST (1/18) No Moon Set
Length of Visible Light 10h 41m
Length of Day
9h 42m
Waxing Crescent, 47% of the Moon is Illuminated
Jan 18
Waxing Crescent
Jan 18
First Quarter
Jan 26
Full
Feb 3
Last Quarter
Feb 10
New

Hourly Weather History & Observations

Time (EST) Temp. Windchill Dew Point Humidity Pressure Visibility Wind Dir Wind Speed Gust Speed Precip Events Conditions
12:54 AM 35.1 °F 32.2 °F 28.0 °F 76% 30.07 in 10.0 mi SSW 3.5 mph - N/A   Mostly Cloudy
1:54 AM 33.1 °F 27.7 °F 27.0 °F 78% 30.09 in 10.0 mi NW 5.8 mph - N/A   Partly Cloudy
2:54 AM 34.0 °F 28.8 °F 26.1 °F 73% 30.10 in 10.0 mi WNW 5.8 mph - N/A   Mostly Cloudy
3:54 AM 35.1 °F 27.9 °F 25.0 °F 67% 30.12 in 10.0 mi WNW 9.2 mph - N/A   Mostly Cloudy
4:19 AM 33.8 °F 22.5 °F 26.6 °F 75% 30.13 in 2.5 mi WNW 19.6 mph 25.3 mph 0.00 in Snow Light Snow
4:30 AM 33.8 °F 24.3 °F 26.6 °F 75% 30.13 in 6.0 mi WNW 13.8 mph 20.7 mph 0.00 in Snow Light Snow
4:49 AM 33.8 °F 25.3 °F 24.8 °F 70% 30.15 in 10.0 mi WNW 11.5 mph - 0.00 in   Overcast
4:54 AM 33.1 °F 22.6 °F 25.0 °F 72% 30.18 in 10.0 mi NW 16.1 mph - 0.00 in   Overcast
5:54 AM 30.0 °F 17.5 °F 19.0 °F 64% 30.25 in 10.0 mi North 19.6 mph 28.8 mph 0.00 in   Mostly Cloudy
6:54 AM 28.9 °F 16.9 °F 17.1 °F 61% 30.30 in 10.0 mi NNW 17.3 mph 21.9 mph N/A   Mostly Cloudy
7:54 AM 27.0 °F 13.9 °F 12.9 °F 56% 30.37 in 10.0 mi NNW 18.4 mph 27.6 mph N/A   Mostly Cloudy
8:54 AM 27.0 °F 13.9 °F 12.0 °F 53% 30.42 in 10.0 mi NW 18.4 mph 24.2 mph N/A   Mostly Cloudy
9:54 AM 28.0 °F 16.5 °F 10.0 °F 47% 30.45 in 10.0 mi North 15.0 mph - N/A   Scattered Clouds
10:54 AM 27.0 °F 15.6 °F 10.9 °F 51% 30.48 in 10.0 mi NNW 13.8 mph - N/A   Mostly Cloudy
11:54 AM 28.9 °F 18.2 °F 12.0 °F 49% 30.48 in 10.0 mi NW 13.8 mph - N/A   Scattered Clouds
12:54 PM 30.0 °F 21.7 °F 10.9 °F 45% 30.45 in 10.0 mi North 9.2 mph - N/A   Mostly Cloudy
1:54 PM 32.0 °F 24.8 °F 9.0 °F 38% 30.45 in 10.0 mi NW 8.1 mph - N/A   Partly Cloudy
2:54 PM 32.0 °F 26.4 °F 9.0 °F 38% 30.45 in 10.0 mi Variable 5.8 mph - N/A   Unknown
3:54 PM 30.9 °F 22.8 °F 8.1 °F 38% 30.47 in 10.0 mi WSW 9.2 mph - N/A   Clear
4:54 PM 30.0 °F 23.2 °F 8.1 °F 40% 30.48 in 10.0 mi West 6.9 mph - N/A   Clear
5:54 PM 27.0 °F 21.6 °F 9.0 °F 47% 30.48 in 10.0 mi SW 4.6 mph - N/A   Clear
6:54 PM 28.0 °F - 10.0 °F 47% 30.49 in 10.0 mi Calm Calm - N/A   Clear
7:54 PM 27.0 °F 23.0 °F 10.0 °F 49% 30.47 in 10.0 mi South 3.5 mph - N/A   Clear
8:54 PM 27.0 °F 20.5 °F 10.9 °F 51% 30.47 in 10.0 mi SSE 5.8 mph - N/A   Clear
9:54 PM 26.1 °F 21.9 °F 10.9 °F 53% 30.45 in 10.0 mi South 3.5 mph - N/A   Clear
10:54 PM 26.1 °F 21.9 °F 10.9 °F 53% 30.43 in 10.0 mi South 3.5 mph - N/A   Clear
11:54 PM 27.0 °F 23.0 °F 10.9 °F 51% 30.41 in 10.0 mi South 3.5 mph - N/A   Clear